Location: La Bastide
(43.1661°N, 1.2755°E)
Time: 09:02:26
(UTC+00:00)

Cosmos 1953 Rocket - Pass Details

Date: 26 March 2026
Orbit: 599 x 626 km, 82.5° (Epoch: 18 April)

Event Time Altitude Azimuth Distance (km) Brightness Sun altitude
Rises 04:51:01 0° 348° (NNW) 2,905 7.0 -11.1°
Reaches altitude 10° 04:53:15 10° 345° (NNW) 1,998 6.2 -10.7°
Maximum altitude 04:57:38 64° 265° (W) 695 3.5 -9.9°
Drops below altitude 10° 05:02:00 10° 184° (S) 1,992 6.0 -9.1°
Sets 05:04:14 0° 181° (S) 2,895 6.9 -8.7°
